www.pogodaiklimat.ru

Погода и климат >> Архив погоды >> Норвегия >> Гуллфакс


ПОГОДА на Гуллфаксе

  • Прогноз погоды на Гуллфаксе
  • Монитор погоды на Гуллфаксе

АРХИВ ПОГОДЫ на Гуллфаксе

Время (UTC), дата Ветер
(напр.,м/с)
 
Видим.   Явления Облачность Т
(С)
Тd
(С)
f
(%)
Тe
(С)
Тes
(С)
Комфортность P
(гПа)
Po
(гПа)
Тmin
(С)
Tmax
(С)
R
(мм)
R24
(мм)
S
(см)
10 14.08 З 4 н/о н/о +12.3 +7.5 72 +10 +10 1007.7 998.1
11 14.08 ЮЗ 4 н/о н/о +12.3 +8.1 76 +10 +10 1007.8 998.2
12 14.08 ЮЗ 4
{5}
20 км 3/3 600 м
[Cu hum]
+12.7 1008.1 1000.1
13 14.08 ЮЗ 4 н/о н/о +12.9 +7.8 71 +11 +11 1008.1 998.5
14 14.08 З 5 н/о н/о +12.9 +7.5 70 +11 +11 1008.2 998.6
15 14.08 ЮЗ 4 20 км 3/3 600 м
[Cu med, cong]
+13.1 1008.2 1000.2
16 14.08 ЮЗ 4 н/о н/о +13.2 +7.5 68 +12 +12 1008.0 998.4
17 14.08 ЮЗ 4 н/о н/о +12.9 +8.4 74 +11 +11 1007.9 998.3
18 14.08 З 4
{6}
20 км 3/3 600 м
[Cu med, cong]
+13.1 1007.9 999.9
19 14.08 З 4 н/о н/о +13.0 +7.9 71 +11 +11 1008.0 998.4
20 14.08 З 4 н/о н/о +12.9 +7.9 72 +11 +11 1008.1 998.6
21 14.08 20 км н/о +12.9 1008.1 1000.1
22 14.08 ЮЗ 3 н/о н/о +12.9 +7.2 68 +12 +12 1008.0 998.4
23 14.08 ЮЗ 4 н/о н/о +13.0 +6.0 62 +11 +11 1007.8 998.2
00 15.08
{5}
20 км {гроза} н/о +13.0 1007.4 999.2
01 15.08 Ю 5 н/о н/о +13.1 +6.6 65 +11 +11 1007.0 997.5
02 15.08 Ю 5 н/о н/о +13.1 +7.2 67 +11 +11 1006.7 997.1
03 15.08 Ю 5 н/о {ливн. осадки} 1/1 600 м
[Cu hum]
+13.4 1005.9 997.9
04 15.08 Ю 6 н/о н/о +13.5 +7.0 65 +11 +11 1005.6 996.1
05 15.08 Ю 6 н/о н/о +13.6 +7.4 66 +12 +12 1005.2 995.7
06 15.08 ЮВ 7
{8}
20 км 9/1 600 м
[Cu hum As trans Cs]
+13.8 1004.8 996.6
07 15.08 ЮВ 7 н/о н/о +13.9 +8.3 69 +12 +12 1004.4 994.9
08 15.08 ЮВ 7 н/о н/о +14.0 +8.5 69 +12 +12 1004.4 994.9
09 15.08 ЮВ 9 20 км 9/3 600 м
[Cu med, cong Ac As]
+50.2 1003.7 995.2
10 15.08 ЮВ 9 н/о н/о +14.4 +9.1 70 +12 +12 1003.2 993.7
11 15.08 ЮВ 9 н/о н/о +14.1 +8.6 69 +12 +12 1002.9 993.4
12 15.08 ЮВ 9
{10}
20 км {дождь} 9/3 600 м
[Sc Ac As]
+13.8 1002.6 994.4
13 15.08 ЮВ 10 н/о н/о +14.1 +8.9 71 +11 +11 1001.8 992.3
14 15.08 Ю 10 н/о н/о +13.7 +10.2 79 +11 +11 1001.1 991.6
15 15.08 Ю 11 4000 м 10/9 600 м
[Frnb As op]
+13.8 1000.5 992.3
16 15.08 Ю 11 н/о н/о +13.5 +11.7 89 +10 +10 1000.4 991.0
17 15.08 З 7 н/о н/о +12.8 +11.6 92 +10 +10 1001.1 991.6
18 15.08 З 9
{13}
10 км {гроза} 9/9 300 м
[Cu Sc]
+12.6 1002.2 994.0
19 15.08 З 10 н/о н/о +12.4 +8.4 77 +9 +9 1002.5 993.0
20 15.08 З 10 н/о н/о +12.1 +7.9 75 +9 +9 1003.0 993.4
21 15.08 З 10 н/о {ливн. осадки} н/о 1003.7 995.5
22 15.08 З 10 н/о н/о +12.2 +7.6 73 +9 +9 1004.1 994.5
23 15.08 З 10 н/о н/о +12.1 +6.8 70 +9 +9 1004.4 994.9
00 16.08 З 9
{12}
20 км {метель} 5/5 600 м
[Sc]
+12.0 1004.7 996.7
01 16.08 З 9 н/о н/о +11.9 +6.7 70 +9 +9 1005.4 995.8
02 16.08 З 8 н/о н/о +11.8 +6.5 70 +9 +9 1005.7 996.1
03 16.08 З 6 20 км {метель} 5/5 600 м
[Cu hum]
+12.0 1005.6 997.6
04 16.08 З 6 н/о н/о +12.1 +7.2 72 +9 +9 1005.8 996.2
05 16.08 З 5 н/о н/о +12.0 +7.3 73 +10 +10 1005.8 996.2
06 16.08 ЮЗ 6
{11}
20 км 8/4 600 м
[Cu hum Ac trans Ci fib]
+12.1 1005.9 997.9
07 16.08 ЮЗ 6 н/о н/о +12.4 +7.8 74 +10 +10 1005.7 996.1
08 16.08 Ю 6 н/о н/о +12.8 +7.7 71 +10 +10 1005.5 996.0
09 16.08 Ю 7 20 км {метель} 9/4 600 м
[Cu hum Ac und]
+13.1 1005.0 996.8
10 16.08 Ю 8 н/о н/о +13.3 +8.9 75 +11 +11 1004.5 995.0
11 16.08 Ю 9 н/о н/о +13.4 +9.3 76 +11 +11 1004.2 994.6
12 16.08 Ю 10
{12}
4000 м {туман} 10/10 300 м
[Frnb]
+50.3 1003.6 995.2
13 16.08 Ю 12 н/о н/о +12.7 +11.4 92 +9 +9 1002.6 993.0
14 16.08 Ю 13 н/о н/о +13.3 +12.2 93 +10 +10 1001.8 992.3
15 16.08 Ю 13 4000 м {гроза} 10/8 200 м
[Frnb As op]
+13.5 1001.0 992.8
16 16.08 Ю 13 н/о н/о +13.7 +12.8 94 +10 +10 1000.2 990.7
17 16.08 Ю 14 н/о н/о +14.2 +13.1 93 +11 +11 999.5 990.0
18 16.08 Ю 13
{15}
10 км {снег} 10/4 300 м
[Frnb As op]
+14.6 998.8 990.6
19 16.08 Ю 15 н/о н/о +14.6 +12.8 89 +11 +11 998.2 988.7
20 16.08 Ю 14 н/о н/о +14.4 +12.9 91 +11 +11 997.4 987.9
21 16.08 Ю 14 4000 м {ливн. осадки} 10/6 300 м
[Frnb As op]
+14.2 996.8 988.7
22 16.08 Ю 15 н/о н/о +14.1 +13.0 93 +11 +11 996.1 986.7
23 16.08 Ю 13 н/о н/о +14.2 +13.5 96 +11 +11 995.4 986.0
00 17.08 Ю 13
{17}
20 км {метель, снег} 10/10 100 м
[Frnb]
+14.1 994.7 986.8
01 17.08 Ю 13 н/о н/о +14.5 +13.6 94 +11 +11 994.0 984.6
02 17.08 Ю 13 н/о н/о +14.2 +13.6 96 +11 +11 993.3 983.9
03 17.08 Ю 13 4000 м слаб. дождь 10/10 100 м
[Frnb]
+14.1 992.4 983.0
04 17.08 Ю 12 н/о н/о +14.3 +13.9 97 +11 +11 991.8 982.4
05 17.08 Ю 13 н/о н/о +13.8 +13.4 97 +10 +10 991.0 981.6
06 17.08 Ю 11
{14}
4000 м {метель} 10/10 100 м
[Frnb]
+14.1 990.5 982.7
07 17.08 Ю 11 н/о н/о +14.4 +14.1 98 +11 +11 990.0 980.7
08 17.08 Ю 10 н/о н/о +14.2 +13.9 98 +11 +11 990.0 980.6
09 17.08 Ю 5 4000 м {гроза} 9/9 100 м
[Frnb]
+14.3 989.9 982.1
10 17.08 Ю 5 н/о н/о +14.4 +14.1 98 +13 +13 989.7 980.3
11 17.08 Ю 5 н/о н/о +14.4 +13.9 97 +13 +13 989.7 980.3
12 17.08 Ю 4
{13}
4000 м 9/9 200 м
[Frnb]
+14.4 989.3 981.5
13 17.08 Ю 3 н/о н/о +14.4 +14.1 98 +13 +13 988.9 979.5
14 17.08 Ю 5 н/о н/о +14.2 +14.0 99 +12 +12 989.2 979.8
15 17.08 ЮЗ 6 10 км 10/3 100 м
[Cb cap Ac cuf]
+14.2 989.4 981.6
16 17.08 ЮЗ 7 н/о н/о +14.3 +13.6 96 +12 +12 990.0 980.6
17 17.08 ЮЗ 8 н/о н/о +14.1 +13.4 96 +12 +12 990.4 981.0
18 17.08 ЮЗ 7
{9}
н/о {гроза} н/о 991.0 983.1
19 17.08 З 8 н/о н/о +12.6 +11.5 93 +9 +9 992.4 983.0
20 17.08 ЮЗ 9 н/о н/о +13.0 +11.1 88 +10 +10 993.0 983.6
21 17.08 ЮЗ 8 20 км {снег} 5/5 300 м
[Sc]
+13.3 993.6 985.5
22 17.08 ЮЗ 9 н/о н/о +13.7 +10.9 83 +11 +11 993.8 984.4
23 17.08 ЮЗ 8 н/о н/о +13.8 +11.1 84 +11 +11 994.1 984.7
00 18.08 Ю 7
{10}
20 км 3/3 300 м
[Sc]
+13.8 994.3 986.4
01 18.08 Ю 8 н/о н/о +13.9 +10.8 82 +11 +11 994.4 985.0
02 18.08 Ю 8 н/о н/о +13.9 +10.9 82 +11 +11 994.0 984.6
03 18.08 Ю 10 н/о {морось} н/о 993.5 985.6
04 18.08 Ю 11 н/о н/о +14.2 +11.8 85 +11 +11 993.1 983.7
05 18.08 Ю 11 н/о н/о +14.4 +11.9 85 +12 +12 992.6 983.2
06 18.08 Ю 11
{13}
20 км 8/3 600 м
[Cu hum Ac As Ci fib]
+14.4 992.6 984.5
07 18.08 Ю 11 н/о н/о +14.6 +12.1 85 +12 +12 992.6 983.2
08 18.08 Ю 10 н/о н/о +14.6 +12.2 86 +12 +12 992.4 983.1
09 18.08 Ю 11 20 км 5/3 300 м
[Cb cap Ac cuf]
+14.5 992.6 984.5
10 18.08 Ю 10 н/о н/о +14.6 +11.8 83 +12 +12 992.7 983.3
11 18.08 Ю 10 н/о н/о +14.8 +11.9 83 +12 +12 992.6 983.3
12 18.08 Ю 10
{13}
20 км {морось} 6/3 300 м
[Cb cap Ac cuf Ci fib]
+14.7 993.0 984.9
13 18.08 Ю 10 н/о н/о +14.7 +12.0 84 +12 +12 992.9 983.5
14 18.08 Ю 11 н/о н/о +14.1 +11.0 82 +11 +11 992.9 983.5
15 18.08 Ю 9 20 км {ливн. осадки} 9/4 300 м
[Cb cap Ac cuf]
+14.6 993.4 985.5
16 18.08 Ю 10 н/о н/о +14.5 +12.1 86 +12 +12 993.0 983.6
17 18.08 Ю 10 н/о н/о +14.5 +11.6 83 +12 +12 993.0 983.6
18 18.08 Ю 10
{13}
10 км {дождь} 9/4 300 м
[Cu med, cong Ac cuf]
+14.6 992.8 984.9
19 18.08 Ю 12 н/о н/о +14.2 +10.8 80 +11 +11 992.6 983.2
20 18.08 Ю 11 н/о н/о +13.4 +11.2 87 +10 +10 992.3 982.9
21 18.08 Ю 9 20 км {туман} 8/3 300 м
[Cu hum Ac trans]
+13.9 992.4 984.3
22 18.08 Ю 8 н/о н/о +14.2 +12.4 89 +12 +12 992.2 982.8
23 18.08 Ю 10 н/о н/о +14.4 +12.7 90 +12 +12 991.8 982.4
00 19.08 Ю 10
{13}
20 км {дождь} 9/3 300 м
[Cu hum Ac trans]
+14.4 991.0 982.9
01 19.08 Ю 10 н/о н/о +13.3 +11.8 91 +10 +10 990.5 981.1
02 19.08 Ю 8 н/о н/о +13.8 +12.4 91 +11 +11 990.0 980.6
03 19.08 ЮЗ 7 20 км {ливн. осадки} 6/3 300 м
[Cu med, cong Ac As]
+12.9 990.8 983.0
04 19.08 ЮЗ 6 н/о н/о +13.0 +11.1 88 +11 +11 991.2 981.8
05 19.08 ЮЗ 6 н/о н/о +13.1 +11.4 89 +11 +11 992.0 982.6
06 19.08 З 5
{14}
20 км 9/9 300 м
[Cu med, cong]
+12.7 992.8 984.9
07 19.08 ЮЗ 6 н/о н/о +12.9 +11.1 89 +10 +10 993.2 983.8
09 19.08 З 5 20 км {ливн. осадки} 8/3 300 м
[Cu med, cong Ac inh]
+13.0 994.8 986.9
10 19.08 ЮЗ 6 н/о н/о +13.1 +11.0 87 +11 +11 995.2 985.8
11 19.08 ЮЗ 7 н/о н/о +13.0 +11.2 89 +10 +10 996.0 986.5
12 19.08 ЮЗ 7
{8}
20 км 8/4 300 м
[Cu med, cong Ac inh]
+13.1 996.6 988.7
13 19.08 ЮЗ 8 н/о н/о +12.6 +11.6 94 +9 +9 997.2 987.7
14 19.08 ЮЗ 8 н/о н/о +12.9 +11.6 92 +10 +10 997.8 988.3
15 19.08 З 8 20 км {гроза} 9/5 300 м
[Cu Sc Ac inh]
+12.6 998.8 990.6
16 19.08 З 8 н/о н/о +12.3 +11.4 94 +9 +9 999.2 989.6
17 19.08 З 8 н/о н/о +12.9 +11.5 91 +10 +10 999.6 990.1
18 19.08 З 7
{10}
20 км {туман} 8/8 300 м
[Cu Sc]
+13.1 1000.3 992.1
19 19.08 З 8 н/о н/о +13.2 +11.8 91 +10 +10 1000.9 991.4
20 19.08 З 6 н/о н/о +13.0 +11.5 91 +11 +11 1001.7 992.2
21 19.08 З 6 н/о н/о 1002.3 994.4
22 19.08 З 5 н/о н/о +12.9 +11.1 89 +11 +11 1002.8 993.3
23 19.08 З 5 н/о н/о +12.9 +10.9 88 +11 +11 1003.2 993.7
00 20.08 З 4
{8}
20 км 10/6 300 м
[Cu Sc Ac inh]
+12.8 1003.7 995.7
01 20.08 З 5 н/о н/о +12.6 +10.5 87 +10 +10 1004.0 994.4
02 20.08 З 5 н/о н/о +12.6 +10.6 88 +10 +10 1004.5 994.9
03 20.08 З 6 20 км {ливн. осадки} 6/3 300 м
[Cu hum Ac trans]
+12.7 1004.8 996.6
04 20.08 З 6 н/о н/о +12.6 +10.3 86 +10 +10 1005.4 995.8
05 20.08 З 7 н/о н/о +12.0 +9.6 85 +9 +9 1006.0 996.4
06 20.08 З 7
{8}
20 км {морось} 6/4 300 м
[Cu Sc Ci fib]
+11.7 1006.8 998.6
07 20.08 З 6 н/о н/о +12.0 +7.7 75 +9 +9 1007.3 997.7
08 20.08 З 6 н/о н/о +11.6 +9.3 86 +9 +9 1008.1 998.5
09 20.08 З 6 20 км {туман} 9/9 300 м
[Cu Sc]
+12.1 1008.7 1000.5
10 20.08 З 7 н/о н/о +12.1 +10.2 88 +9 +9 1009.3 999.7
11 20.08 З 7 н/о н/о +12.0 +9.6 85 +9 +9 1010.2 1000.6
12 20.08 З 7
{8}
20 км {метель} 9/5 300 м
[Cu med, cong Ac trans]
+11.7 1011.3 1003.0
13 20.08 З 8 н/о н/о +11.7 +8.9 83 +8 +8 1012.2 1002.6
14 20.08 З 8 н/о н/о +11.7 +8.9 83 +8 +8 1012.9 1003.2
15 20.08 З 8 20 км {снег} 9/9 300 м
[Cu med, cong]
+11.8 1013.9 1005.6
16 20.08 З 9 н/о н/о +11.7 +8.6 81 +8 +8 1014.6 1004.9
17 20.08 З 9 н/о н/о +11.6 +8.5 81 +8 +8 1015.3 1005.6
18 20.08 З 9
{10}
20 км {морось} 8/4 300 м
[St]
+10.9 1015.9 1007.8
19 20.08 З 7 н/о н/о +10.3 +8.5 89 +7 +7 1016.5 1006.7
20 20.08 З 7 н/о н/о +10.2 +9.0 92 +6 +6 1017.2 1007.5
21 20.08 З 7 н/о {гроза} н/о 1017.9 1009.8
22 20.08 З 7 н/о н/о +11.6 +6.1 69 +9 +9 1018.3 1008.6
23 20.08 З 7 н/о н/о +11.5 +5.1 65 +8 +8 1018.8 1009.1
00 21.08 З 6
{10}
20 км {гроза} 9/9 300 м
[Cu med, cong]
+11.2 1019.4 1011.3
01 21.08 З 6 н/о н/о +11.0 +3.9 62 +8 +8 1019.6 1009.9
02 21.08 З 6 н/о н/о +11.0 +4.8 66 +8 +8 1020.0 1010.2
03 21.08 З 4 20 км {гроза} 8/4 600 м
[Cu hum Ac trans]
+11.0 1020.2 1012.1
05 21.08 З 5 н/о н/о +11.3 +6.7 73 +9 +9 1020.5 1010.8
06 21.08 З 5
{7}
20 км {дождь} 9/6 600 м
[Sc Ac trans]
+11.3 1021.1 1013.0
07 21.08 ЮЗ 4 н/о н/о +11.3 +6.5 72 +9 +9 1021.2 1011.5
08 21.08 ЮЗ 3 н/о н/о +11.5 +6.5 71 +10 +10 1021.5 1011.7

 

Местоположение метеостанции Гуллфакс (Норвегия): широта 61.20 долгота 2.27 высота над уровнем моря 80 м.

В архиве по умолчанию представлена погода на Гуллфаксе за последнюю неделю. Архивные данные за месяц целиком и за предыдущие месяцы, начиная с января 2011 года, Вы можете получить, выбрав интересующий диапазон дат из раскрывающегося списка и нажав кнопку "Ввод!".


*Определитесь, кто Вы:
робот инопланетянин человек

Внимание! Время в таблицах - всемирное. Для получения местного времени необходимо прибавить поправку, которая равна 1 ч.

Смотрите также архив погоды в соседних городах и на ближайших метеорологических станциях:

Погода на Маяке Ytteroyane (Норвегия) (135 км)
Погода в Федье (Норвегия) (140 км)
Погода в Фурунесете (Норвегия) (149 км)
Погода в Флоро аэропорту (Норвегия) (153 км)
Погода в Такле (Норвегия) (168 км)
Погода на Маяке Krakenes (Норвегия) (171 км)
Погода в Болтасаунде (Великобритания) (176 км)
Погода во Флурё аэропорту (Норвегия) (188 км)
Погода в Бергене (Норвегия) (189 км)
Погода во Флурё (Норвегия) (197 км)

Пояснения к столбцам:

Ветер - указаны скорость ветра в м/с - средняя за 10 мин, порывы в срок и между сроками (в фигурных скобках) и направление, откуда дует ветер: С - северный, СВ - северо-восточный, В - восточный, ЮВ - юго-восточный, Ю - южный, ЮЗ - юго-западный, З - западный, СЗ - северо-западный.
Видимость - горизонтальная дальность видимости в метрах или километрах. При видимости от 1 до 10 км при отсутствии осадков обычно наблюдается дымка, при ухудшении видимости до 1 км и менее - туман. В сухую погоду видимость может ухудшаться дымом, пылью или мглою.
Явления - указаны атмосферные явления, наблюдавшиеся в срок или в последний час перед сроком; фигурными скобками обозначены явления, наблюдавшиеся между сроками (за 1-3 часа до срока); квадратными скобками обозначены град или гололедные отложения с указанием их диаметра в мм.
Облачность - указаны через наклонную черту общая и нижняя облачность в баллах и высота нижней границы облаков в метрах; квадратными скобками обозначены формы облаков: Ci - перистые, Cs - перисто-слоистые, Cc - перисто-кучевые, Ac - высококучевые, As - высокослоистые, Sc - слоисто-кучевые, Ns - слоисто-дождевые, Cu - кучевые, Cb - кучево-дождевые. Подробнее классификацию облаков см. в Атласе облаков (PDF).
T - Температура воздуха - температура, измеренная на высоте 2 м над землей.
Td - Температура точки росы - температура, при понижении до которой содержащийся в воздухе водяной пар достигнет насыщения.
f - Относительная влажность воздуха - влажноcть воздуха, измеренная на высоте 2 м над землей.
Te - Эффективная температура - температура, которую ощущает одетый по сезону человек в тени. Характеристика душности погоды. При расчете учитывается влияние влажности воздуха и скорости ветра на теплоощущения человека.
Tes - Эффективная температура на солнце - температура, которую ощущает человек, с поправкой на солнечный нагрев. Характеристика знойности погоды. Зависит от высоты солнца над горизонтом, облачности и скорости ветра. Ночью, в пасмурную погоду, а также при ветре 12 м/с и более поправка равна нулю.
P - Атмосферное давление - приведенное к уровню моря атмосферное давление.
Po - Атмосферное давление - измеренное на уровне метеостанции атмосферное давление.
Tmin - Минимальная температура - минимум температуры воздуха на высоте 2 м над землей.
Tmax - Максимальная температура - максимум температуры воздуха на высоте 2 м над землей.
R - Количество осадков - Количество выпавших осадков за период времени, мм. При наведении курсора мыши на число - период времени, за который выпало указанное количество осадков.
R24 - Количество осадков - Количество выпавших осадков за 24 часа, мм.
S - Снежный покров - Высота снежного покрова, см. При наведении курсора мыши на число - состояние снежного покрова и степень покрытия местности в баллах.